This is the latest recevied weather packets stored in our database for station/object AE5HO. If no packets are shown the sender has not sent any weather packets the latest 10 day(s).
| Time | Temp. | Humidity | Pressure | Rain* | Wind** | Luminosity | Snow |
|---|---|---|---|---|---|---|---|
| 1788055598 | 34.44° C | 40% | 1014.5 hPa | 0 mm | - | 0 W/m² | - |
| 1788055293 | 34.44° C | 39% | 1014.4 hPa | 0 mm | - | 0 W/m² | - |
| 1788054993 | 34.44° C | 40% | 1014.4 hPa | 0 mm | - | 0 W/m² | - |
| 1788054689 | 34.44° C | 40% | 1014.2 hPa | 0 mm | - | 0 W/m² | - |
| 1788054384 | 34.44° C | 40% | 1014.1 hPa | 0 mm | - | 0 W/m² | - |
| 1788054081 | 35° C | 39% | 1014.2 hPa | 0 mm | - | 0 W/m² | - |
| 1788053780 | 35° C | 40% | 1014.1 hPa | 0 mm | - | 0 W/m² | - |
| 1788053476 | 35° C | 39% | 1014.2 hPa | 0 mm | - | 0 W/m² | - |
| 1788053176 | 35° C | 40% | 1014.1 hPa | 0 mm | - | 0 W/m² | - |
| 1788052873 | 35° C | 40% | 1013.9 hPa | 0 mm | - | 0 W/m² | - |
| 1788052573 | 35° C | 40% | 1013.9 hPa | 0 mm | - | 0 W/m² | - |
| 1788052268 | 35° C | 40% | 1013.8 hPa | 0 mm | - | 0 W/m² | - |
| 1788051963 | 35.56° C | 39% | 1013.8 hPa | 0 mm | - | 0 W/m² | - |
| 1788051658 | 35.56° C | 39% | 1013.7 hPa | 0 mm | - | 0 W/m² | - |
| 1788051356 | 35.56° C | 39% | 1013.7 hPa | 0 mm | - | 0 W/m² | - |
| 1788051055 | 35.56° C | 38% | 1013.9 hPa | 0 mm | - | 0 W/m² | - |
| 1788050750 | 36.11° C | 37% | 1014 hPa | 0 mm | - | 2 W/m² | - |
| 1788050449 | 36.11° C | 37% | 1013.8 hPa | 0 mm | - | 4 W/m² | - |
| 1788050145 | 36.67° C | 36% | 1014 hPa | 0 mm | - | 7 W/m² | - |
| 1788049840 | 37.22° C | 37% | 1013.8 hPa | 0 mm | - | 10 W/m² | - |
| 1788049537 | 37.78° C | 35% | 1014 hPa | 0 mm | - | 12 W/m² | - |
| 1788049233 | 37.78° C | 34% | 1013.9 hPa | 0 mm | - | 27 W/m² | - |
| 1788048928 | 37.78° C | 35% | 1013.9 hPa | 0 mm | - | 31 W/m² | - |
| 1788048624 | 37.78° C | 36% | 1013.9 hPa | 0 mm | - | 42 W/m² | - |
| 1788048321 | 37.78° C | 34% | 1014 hPa | 0 mm | - | 32 W/m² | - |
* Rain latest hour (hover to see other rain measurements)
** Current wind speed in m/s (hover to see current wind gust speed)